Location: Poughquag
(41.6090°N, 73.6820°W)
Time: 13:08:56
(UTC-04:00)

Vanguard 2 - Pass Details

Date: 01 June 2020
Orbit: 552 x 2938 km, 32.9° (Epoch: 05 July)

Event Time Altitude Azimuth Distance (km) Brightness Sun altitude
Rises 20:18:50 0° 248° (WSW) 6,112 12.7 -0.2°
Reaches altitude 10° 20:23:34 10° 243° (WSW) 4,761 12.1 -0.9°
Maximum altitude 20:35:10 47° 176° (S) 1,948 9.4 -2.7°
Drops below altitude 10° 20:42:15 10° 105° (ESE) 2,959 9.9 -3.8°
Enters shadow 20:44:14 - 99° (E) 3,577 10.4 -4.2°
Sets 20:44:32 0° 98° (E) 3,674 - -4.2°
